Sidney, NE

3:21 PM MDT on April 21, 2018 (GMT -0600)
Sidney Municipal

Weather History for KSNY - October, 2013

Change the Weather History Date:

Thursday, October 3, 2013

  Actual Average Record
Temperature  
Mean Temperature 50 °F 55 °F  
Max Temperature 54 °F 70 °F 90 °F (1967)
Min Temperature 46 °F 40 °F 25 °F (2009)
Degree Days  
Heating Degree Days 15 10  
Month to date heating degree days 28 30  
Since 1 July heating degree days 132 170  
Cooling Degree Days 0 0  
Month to date cooling degree days 0 1  
Year to date cooling degree days 918 827  
Moisture  
Dew Point 44 °F    
Average Humidity 78    
Maximum Humidity 93    
Minimum Humidity 63    
Precipitation  
Precipitation 0.04 in 0.04 in 0.81 in (1969)
Month to date precipitation 0.04 0.12  
Year to date precipitation 14.18 16.53  
Sea Level Pressure  
Sea Level Pressure 29.81 in    
Wind  
Wind Speed 13 mph (NNE)    
Max Wind Speed 21 mph    
Max Gust Speed 23 mph    
Visibility 7 miles    
Events Rain    
T = Trace of Precipitation, MM = Missing Value Source: NWS Daily Summary

Daily Weather History Graph

Daily Weather History Graph

Search for Another Location

Airport or City:

Astronomy

Oct. 03, 2013 Rise Set
Actual Time 6:50 AM MDT 6:30 PM MDT
Civil Twilight 6:23 AM MDT 6:57 PM MDT
Nautical Twilight 5:51 AM MDT 7:29 PM MDT
Astronomical Twilight 5:19 AM MDT 8:01 PM MDT
Moon 5:26 AM MDT (10/3) 5:40 PM MDT (10/3)
Length of Visible Light 12h 33m
Length of Day
11h 39m
Waning Crescent, 2% of the Moon is Illuminated
Oct 3
Waning Crescent
Oct 4
New
Oct 11
First Quarter
Oct 18
Full
Oct 26
Last Quarter

Hourly Weather History & Observations

Time (MDT) Temp. Dew Point Humidity Pressure Visibility Wind Dir Wind Speed Gust Speed Precip Events Conditions
12:04 AM 51.8 °F 39.2 °F 62% 29.90 in 10.0 mi NNE 6.9 mph - N/A   Overcast
12:53 AM 52.0 °F 39.0 °F 61% 29.79 in 10.0 mi North 6.9 mph - N/A   Overcast
1:53 AM 52.0 °F 39.9 °F 63% 29.78 in 10.0 mi North 6.9 mph - N/A   Overcast
2:24 AM 50.0 °F 39.2 °F 66% 29.87 in 10.0 mi North 8.1 mph - N/A   Scattered Clouds
2:53 AM 48.9 °F 39.9 °F 71% 29.78 in 10.0 mi NNW 8.1 mph - N/A   Mostly Cloudy
3:19 AM 48.2 °F 39.2 °F 71% 29.87 in 10.0 mi NNW 6.9 mph - N/A   Mostly Cloudy
3:53 AM 50.0 °F 39.0 °F 66% 29.77 in 10.0 mi North 6.9 mph - N/A   Overcast
4:53 AM 51.1 °F 39.0 °F 63% 29.76 in 10.0 mi NNE 9.2 mph - N/A   Overcast
5:53 AM 50.0 °F 39.9 °F 68% 29.80 in 10.0 mi NNW 12.7 mph - N/A   Overcast
6:53 AM 48.9 °F 39.9 °F 71% 29.80 in 10.0 mi North 9.2 mph - N/A   Overcast
7:53 AM 51.1 °F 41.0 °F 68% 29.81 in 10.0 mi North 11.5 mph - N/A   Overcast
8:53 AM 50.0 °F 41.0 °F 71% 29.82 in 10.0 mi NNE 16.1 mph - N/A   Overcast
9:53 AM 51.1 °F 42.1 °F 71% 29.83 in 10.0 mi NNE 12.7 mph - N/A   Overcast
10:53 AM 52.0 °F 43.0 °F 71% 29.82 in 10.0 mi North 11.5 mph - N/A   Overcast
11:53 AM 53.1 °F 44.1 °F 71% 29.80 in 10.0 mi North 10.4 mph - N/A   Overcast
12:53 PM 53.1 °F 45.0 °F 74% 29.79 in 10.0 mi NE 11.5 mph - N/A   Overcast
1:31 PM 53.6 °F 44.6 °F 72% 29.84 in 10.0 mi NNE 12.7 mph - N/A   Overcast
1:53 PM 52.0 °F 45.0 °F 77% 29.79 in 10.0 mi NE 12.7 mph - N/A   Overcast
2:53 PM 52.0 °F 46.0 °F 80% 29.77 in 10.0 mi ENE 18.4 mph - N/A   Overcast
3:34 PM 51.8 °F 46.4 °F 82% 29.82 in 10.0 mi NE 17.3 mph - N/A   Overcast
3:53 PM 51.1 °F 46.0 °F 83% 29.76 in 10.0 mi NE 17.3 mph - N/A   Overcast
4:53 PM 50.0 °F 46.9 °F 89% 29.76 in 7.0 mi NE 19.6 mph - N/A   Overcast
5:19 PM 50.0 °F 46.4 °F 87% 29.82 in 2.0 mi ENE 15.0 mph - N/A   Overcast
5:49 PM 50.0 °F 48.2 °F 94% 29.82 in 1.8 mi NE 12.7 mph - N/A   Overcast
5:53 PM 50.0 °F 48.0 °F 93% 29.78 in 1.8 mi ENE 16.1 mph - N/A   Overcast
6:25 PM 48.2 °F 48.2 °F 100% 29.83 in 1.2 mi NE 15.0 mph - 0.00 in Rain Light Rain
6:38 PM 48.2 °F 48.2 °F 100% 29.84 in 2.0 mi NE 11.5 mph - 0.00 in Rain Light Rain
6:53 PM 48.9 °F 48.0 °F 97% 29.80 in 2.0 mi NE 11.5 mph - 0.00 in Rain Light Rain
7:16 PM 48.2 °F 46.4 °F 93% 29.85 in 1.8 mi NE 16.1 mph - 0.01 in Rain Light Rain
7:46 PM 48.2 °F 46.4 °F 93% 29.85 in 2.0 mi NE 16.1 mph 20.7 mph 0.01 in Rain Light Rain
7:53 PM 48.0 °F 46.9 °F 96% 29.80 in 2.0 mi NE 13.8 mph - 0.01 in Rain Light Rain
8:53 PM 48.0 °F 46.0 °F 93% 29.81 in 2.5 mi NE 13.8 mph - 0.01 in   Overcast
10:53 PM 46.9 °F 46.0 °F 97% 29.78 in 2.5 mi NE 13.8 mph - 0.01 in   Overcast
11:53 PM 46.9 °F 46.0 °F 97% 29.76 in 1.8 mi NE 13.8 mph - 0.00 in Rain Light Rain